QPF
0.03 0.04 0.05 0.07 0.07 0.05 0.04 0.03 0.03 0.04 0.05 0.05 0.05 0.05 0.05 0.04 0.04 0.04 0.03 0.03 0.03 0.03 0.03 0.03 0.03 0.03 0.02 0.02 0.02 0.02 0.02 0.02 0.03 0.04 0.04 0.03 0.02 0.01 0.01 0.01 0.00 0.00 0.01
0.03 0.04 0.03 0.03 0.05 0.06 0.06 0.05 0.04 0.04 0.04 0.05 0.05 0.05 0.05 0.04 0.04 0.04 0.04 0.04 0.04 0.04 0.03 0.03 0.03 0.04 0.03 0.03 0.02 0.02 0.02 0.02 0.03 0.03 0.03 0.03 0.03 0.02 0.01 0.00 0.00 0.00 0.00
0.02 0.03 0.04 0.03 0.03 0.04 0.05 0.06 0.05 0.05 0.04 0.04 0.05 0.05 0.04 0.04 0.04 0.04 0.04 0.05 0.05 0.04 0.03 0.03 0.03 0.03 0.03 0.03 0.03 0.02 0.02 0.01 0.01 0.01 0.01 0.01 0.01 0.01 0.01 0.00 0.00 0.00 0.00
0.01 0.02 0.04 0.04 0.03 0.02 0.03 0.03 0.05 0.06 0.05 0.05 0.05 0.05 0.05 0.04 0.03 0.03 0.04 0.05 0.05 0.05 0.05 0.04 0.03 0.03 0.03 0.03 0.03 0.03 0.02 0.02 0.02 0.02 0.02 0.01 0.01 0.00 0.00 0.00 0.00 0.00 0.00
0.01 0.01 0.02 0.04 0.05 0.04 0.03 0.02 0.03 0.04 0.05 0.05 0.05 0.05 0.04 0.04 0.04 0.04 0.04 0.05 0.05 0.06 0.06 0.06 0.05 0.04 0.03 0.03 0.03 0.03 0.03 0.03 0.02 0.02 0.02 0.02 0.01 0.01 0.00 0.00 0.00 0.00 0.00
0.02 0.01 0.02 0.02 0.04 0.05 0.04 0.02 0.02 0.02 0.03 0.04 0.04 0.04 0.04 0.04 0.05 0.05 0.04 0.05 0.05 0.06 0.06 0.06 0.06 0.06 0.05 0.04 0.03 0.02 0.02 0.03 0.03 0.02 0.02 0.01 0.01 0.01 0.00 0.00 0.00 0.00 0.00
0.02 0.02 0.02 0.02 0.02 0.03 0.04 0.04 0.03 0.03 0.03 0.04 0.04 0.04 0.04 0.05 0.05 0.04 0.04 0.05 0.05 0.05 0.05 0.05 0.05 0.05 0.05 0.05 0.04 0.03 0.03 0.02 0.02 0.02 0.02 0.01 0.01 0.01 0.01 0.01 0.00 0.00 0.00
0.03 0.02 0.02 0.02 0.02 0.02 0.03 0.04 0.04 0.03 0.03 0.04 0.04 0.04 0.04 0.05 0.05 0.05 0.04 0.04 0.05 0.05 0.05 0.05 0.05 0.05 0.04 0.04 0.04 0.04 0.03 0.02 0.02 0.02 0.01 0.01 0.01 0.01 0.01 0.01 0.01 0.00 0.00
0.02 0.02 0.02 0.02 0.02 0.02 0.02 0.04 0.04 0.04 0.04 0.04 0.04 0.03 0.03 0.04 0.04 0.04 0.05 0.04 0.03 0.04 0.04 0.04 0.04 0.04 0.04 0.04 0.04 0.03 0.03 0.02 0.02 0.01 0.01 0.01 0.01 0.01 0.01 0.01 0.01 0.01 0.01
0.03 0.02 0.02 0.01 0.02 0.02 0.02 0.03 0.04 0.05 0.04 0.03 0.03 0.03 0.03 0.03 0.04 0.04 0.04 0.04 0.03 0.03 0.03 0.03 0.04 0.04 0.04 0.04 0.04 0.03 0.03 0.02 0.02 0.02 0.01 0.01 0.01 0.01 0.01 0.01 0.01 0.01 0.01
0.03 0.02 0.02 0.02 0.02 0.02 0.03 0.03 0.03 0.05 0.06 0.05 0.03 0.03 0.02 0.03 0.04 0.04 0.03 0.03 0.03 0.03 0.03 0.02 0.02 0.03 0.04 0.04 0.04 0.03 0.03 0.02 0.02 0.02 0.01 0.01 0.01 0.01 0.01 0.00 0.01 0.01 0.01
0.03 0.03 0.03 0.03 0.03 0.03 0.03 0.03 0.03 0.04 0.05 0.06 0.05 0.04 0.03 0.03 0.03 0.03 0.03 0.03 0.03 0.03 0.03 0.02 0.02 0.02 0.03 0.03 0.03 0.04 0.03 0.03 0.03 0.02 0.02 0.01 0.01 0.01 0.01 0.00 0.00 0.00 0.00
0.04 0.03 0.03 0.04 0.04 0.03 0.03 0.03 0.04 0.04 0.04 0.05 0.06 0.05 0.04 0.04 0.04 0.03 0.04 0.04 0.04 0.04 0.03 0.02 0.02 0.03 0.03 0.03 0.02 0.03 0.03 0.03 0.03 0.02 0.02 0.01 0.01 0.01 0.01 0.01 0.01 0.00 0.00
0.05 0.04 0.03 0.04 0.04 0.04 0.04 0.04 0.04 0.04 0.04 0.04 0.05 0.06 0.05 0.04 0.03 0.03 0.03 0.04 0.04 0.04 0.04 0.04 0.04 0.03 0.03 0.03 0.02 0.03 0.03 0.02 0.02 0.01 0.01 0.01 0.01 0.01 0.01 0.01 0.01 0.01 0.01
0.04 0.04 0.03 0.03 0.04 0.05 0.05 0.05 0.04 0.04 0.04 0.04 0.04 0.04 0.04 0.05 0.04 0.03 0.03 0.03 0.03 0.03 0.03 0.04 0.04 0.03 0.03 0.02 0.02 0.02 0.02 0.02 0.02 0.01 0.01 0.01 0.01 0.01 0.01 0.01 0.01 0.01 0.01
0.03 0.03 0.03 0.03 0.04 0.05 0.05 0.05 0.05 0.04 0.04 0.04 0.04 0.04 0.04 0.04 0.04 0.03 0.03 0.03 0.03 0.03 0.04 0.03 0.02 0.02 0.01 0.02 0.02 0.02 0.02 0.02 0.02 0.01 0.01 0.01 0.01 0.01 0.01 0.01 0.01 0.01 0.01
0.03 0.03 0.03 0.03 0.03 0.04 0.04 0.04 0.05 0.05 0.04 0.04 0.04 0.03 0.03 0.03 0.03 0.03 0.03 0.03 0.03 0.04 0.04 0.03 0.01 0.01 0.01 0.01 0.01 0.01 0.01 0.02 0.02 0.01 0.01 0.01 0.01 0.01 0.01 0.01 0.01 0.01 0.01
0.02 0.02 0.03 0.03 0.03 0.03 0.03 0.03 0.03 0.03 0.04 0.04 0.04 0.03 0.03 0.03 0.03 0.03 0.03 0.03 0.04 0.05 0.04 0.03 0.02 0.02 0.01 0.01 0.01 0.01 0.01 0.02 0.02 0.01 0.01 0.01 0.01 0.01 0.01 0.01 0.01 0.01 0.01
0.03 0.03 0.03 0.03 0.03 0.03 0.03 0.03 0.03 0.03 0.03 0.03 0.04 0.04 0.03 0.03 0.03 0.03 0.03 0.03 0.03 0.03 0.03 0.03 0.02 0.02 0.01 0.01 0.01 0.01 0.01 0.01 0.01 0.01 0.01 0.01 0.01 0.01 0.01 0.01 0.01 0.01 0.01
0.02 0.02 0.02 0.02 0.03 0.03 0.03 0.02 0.02 0.02 0.02 0.02 0.02 0.03 0.03 0.03 0.03 0.03 0.03 0.03 0.03 0.02 0.02 0.02 0.02 0.02 0.02 0.02 0.02 0.02 0.02 0.02 0.01 0.01 0.01 0.01 0.01 0.01 0.01 0.01 0.01 0.01 0.01
0.02 0.02 0.02 0.02 0.02 0.02 0.02 0.02 0.02 0.01 0.01 0.01 0.01 0.01 0.02 0.02 0.03 0.02 0.03 0.02 0.02 0.02 0.02 0.02 0.01 0.02 0.02 0.02 0.02 0.02 0.02 0.02 0.01 0.01 0.01 0.01 0.01 0.01 0.01 0.01 0.01 0.01 0.01
0.01 0.02 0.02 0.02 0.02 0.02 0.02 0.02 0.02 0.01 0.01 0.01 0.01 0.01 0.01 0.01 0.01 0.02 0.02 0.02 0.02 0.02 0.02 0.02 0.02 0.02 0.02 0.02 0.02 0.02 0.02 0.02 0.02 0.01 0.01 0.01 0.01 0.01 0.01 0.01 0.01 0.01 0.01
0.01 0.01 0.01 0.02 0.02 0.02 0.02 0.02 0.02 0.01 0.01 0.01 0.01 0.01 0.01 0.01 0.01 0.01 0.01 0.01 0.01 0.01 0.02 0.02 0.02 0.02 0.02 0.02 0.02 0.02 0.02 0.01 0.01 0.01 0.01 0.01 0.01 0.01 0.01 0.01 0.01 0.01 0.01
0.01 0.01 0.01 0.02 0.02 0.02 0.02 0.02 0.01 0.01 0.01 0.01 0.01 0.01 0.01 0.01 0.01 0.01 0.01 0.01 0.01 0.01 0.01 0.02 0.02 0.02 0.02 0.01 0.01 0.01 0.01 0.01 0.01 0.01 0.01 0.01 0.01 0.01 0.01 0.01 0.01 0.01 0.01
0.01 0.01 0.01 0.01 0.01 0.01 0.01 0.01 0.01 0.01 0.01 0.01 0.01 0.01 0.00 0.00 0.01 0.01 0.01 0.01 0.01 0.01 0.01 0.01 0.01 0.01 0.01 0.01 0.01 0.01 0.01 0.01 0.02 0.02 0.02 0.02 0.02 0.02 0.02 0.02 0.02 0.02 0.02
0.01 0.01 0.01 0.01 0.01 0.01 0.01 0.01 0.01 0.01 0.01 0.01 0.01 0.00 0.00 0.00 0.00 0.01 0.01 0.01 0.01 0.01 0.01 0.01 0.01 0.01 0.01 0.01 0.01 0.01 0.02 0.02 0.02 0.02 0.03 0.03 0.03 0.02 0.02 0.02 0.02 0.02 0.02
MSLP
1015.12 1015.41 1015.75 1016.13 1016.54 1016.99 1017.46 1017.98 1018.53 1019.13 1019.75 1020.39 1021.02 1021.62 1022.19 1022.71 1023.20 1023.65 1024.10 1024.54 1025.01 1025.49 1025.99 1026.49 1026.99 1027.46 1027.90 1028.29 1028.64 1028.95 1029.25 1029.52 1029.79 1030.06 1030.31 1030.55 1030.76 1030.92 1031.04 1031.10 1031.11 1031.09 1031.04
1015.28 1015.48 1015.72 1016.01 1016.32 1016.68 1017.08 1017.53 1018.03 1018.60 1019.20 1019.84 1020.48 1021.10 1021.70 1022.24 1022.75 1023.22 1023.67 1024.12 1024.58 1025.06 1025.56 1026.06 1026.57 1027.05 1027.50 1027.91 1028.28 1028.61 1028.90 1029.18 1029.46 1029.72 1029.98 1030.22 1030.44 1030.62 1030.76 1030.84 1030.87 1030.85 1030.80
1015.52 1015.62 1015.77 1015.94 1016.15 1016.41 1016.72 1017.09 1017.54 1018.06 1018.65 1019.28 1019.94 1020.58 1021.20 1021.77 1022.30 1022.78 1023.24 1023.68 1024.13 1024.60 1025.09 1025.60 1026.11 1026.61 1027.09 1027.52 1027.91 1028.26 1028.58 1028.87 1029.14 1029.40 1029.66 1029.90 1030.12 1030.31 1030.46 1030.56 1030.61 1030.61 1030.56
1015.81 1015.83 1015.87 1015.94 1016.04 1016.18 1016.39 1016.69 1017.07 1017.55 1018.12 1018.75 1019.42 1020.09 1020.73 1021.33 1021.87 1022.36 1022.82 1023.25 1023.69 1024.14 1024.62 1025.12 1025.64 1026.16 1026.66 1027.13 1027.55 1027.93 1028.26 1028.55 1028.82 1029.08 1029.32 1029.55 1029.77 1029.97 1030.12 1030.24 1030.31 1030.32 1030.29
1016.13 1016.07 1016.02 1015.98 1015.98 1016.01 1016.12 1016.33 1016.66 1017.10 1017.64 1018.27 1018.96 1019.65 1020.32 1020.94 1021.50 1022.00 1022.44 1022.86 1023.27 1023.71 1024.17 1024.66 1025.18 1025.72 1026.24 1026.73 1027.18 1027.58 1027.93 1028.22 1028.49 1028.73 1028.95 1029.17 1029.38 1029.57 1029.73 1029.86 1029.95 1029.98 1029.95
1016.48 1016.35 1016.22 1016.09 1015.98 1015.92 1015.94 1016.07 1016.34 1016.74 1017.28 1017.91 1018.61 1019.32 1020.01 1020.66 1021.22 1021.72 1022.15 1022.55 1022.94 1023.35 1023.78 1024.26 1024.78 1025.31 1025.84 1026.35 1026.82 1027.23 1027.58 1027.88 1028.13 1028.35 1028.55 1028.74 1028.93 1029.11 1029.28 1029.42 1029.52 1029.57 1029.56
1016.84 1016.66 1016.47 1016.26 1016.07 1015.93 1015.89 1015.96 1016.18 1016.56 1017.08 1017.71 1018.42 1019.15 1019.85 1020.50 1021.08 1021.57 1021.98 1022.36 1022.72 1023.09 1023.50 1023.95 1024.44 1024.97 1025.50 1026.01 1026.47 1026.88 1027.23 1027.51 1027.74 1027.93 1028.10 1028.27 1028.44 1028.61 1028.77 1028.92 1029.03 1029.10 1029.12
1017.21 1017.01 1016.78 1016.53 1016.29 1016.11 1016.02 1016.06 1016.26 1016.61 1017.12 1017.75 1018.45 1019.18 1019.89 1020.53 1021.09 1021.57 1021.96 1022.30 1022.63 1022.96 1023.33 1023.75 1024.21 1024.71 1025.22 1025.71 1026.16 1026.55 1026.88 1027.14 1027.34 1027.50 1027.64 1027.78 1027.93 1028.08 1028.24 1028.39 1028.52 1028.62 1028.66
1017.61 1017.42 1017.18 1016.92 1016.68 1016.49 1016.39 1016.42 1016.61 1016.96 1017.45 1018.06 1018.75 1019.46 1020.14 1020.76 1021.30 1021.74 1022.09 1022.40 1022.68 1022.97 1023.29 1023.66 1024.09 1024.55 1025.02 1025.48 1025.90 1026.26 1026.55 1026.78 1026.95 1027.09 1027.20 1027.31 1027.44 1027.58 1027.74 1027.90 1028.05 1028.16 1028.23
1018.07 1017.90 1017.70 1017.47 1017.26 1017.09 1017.02 1017.07 1017.26 1017.60 1018.08 1018.67 1019.32 1019.99 1020.62 1021.19 1021.68 1022.07 1022.38 1022.63 1022.86 1023.10 1023.37 1023.70 1024.07 1024.48 1024.90 1025.32 1025.69 1026.02 1026.27 1026.46 1026.61 1026.71 1026.80 1026.90 1027.02 1027.16 1027.32 1027.49 1027.65 1027.79 1027.90
1018.62 1018.50 1018.35 1018.19 1018.03 1017.93 1017.90 1017.99 1018.20 1018.54 1019.00 1019.54 1020.14 1020.74 1021.31 1021.81 1022.22 1022.54 1022.79 1022.98 1023.16 1023.34 1023.56 1023.83 1024.15 1024.50 1024.87 1025.23 1025.56 1025.84 1026.05 1026.21 1026.33 1026.41 1026.49 1026.57 1026.68 1026.82 1026.99 1027.18 1027.36 1027.53 1027.67
1019.27 1019.22 1019.14 1019.06 1018.99 1018.96 1019.00 1019.13 1019.36 1019.70 1020.13 1020.62 1021.15 1021.67 1022.15 1022.56 1022.88 1023.12 1023.30 1023.43 1023.55 1023.68 1023.85 1024.07 1024.33 1024.63 1024.94 1025.24 1025.52 1025.75 1025.92 1026.05 1026.13 1026.20 1026.26 1026.34 1026.46 1026.61 1026.79 1026.99 1027.20 1027.40 1027.57
1020.03 1020.05 1020.06 1020.06 1020.08 1020.14 1020.24 1020.42 1020.67 1021.00 1021.39 1021.83 1022.27 1022.70 1023.08 1023.39 1023.62 1023.78 1023.89 1023.96 1024.03 1024.11 1024.23 1024.40 1024.62 1024.86 1025.12 1025.37 1025.59 1025.77 1025.90 1025.99 1026.05 1026.09 1026.15 1026.23 1026.34 1026.50 1026.69 1026.91 1027.14 1027.37 1027.58
1020.89 1020.97 1021.05 1021.13 1021.23 1021.36 1021.52 1021.74 1022.01 1022.32 1022.68 1023.05 1023.42 1023.75 1024.03 1024.25 1024.39 1024.48 1024.53 1024.55 1024.58 1024.63 1024.72 1024.85 1025.02 1025.22 1025.43 1025.63 1025.80 1025.93 1026.01 1026.06 1026.09 1026.12 1026.15 1026.22 1026.33 1026.49 1026.69 1026.92 1027.17 1027.42 1027.65
1021.80 1021.93 1022.06 1022.21 1022.37 1022.55 1022.76 1023.01 1023.28 1023.58 1023.90 1024.21 1024.50 1024.76 1024.95 1025.09 1025.17 1025.21 1025.21 1025.20 1025.20 1025.24 1025.31 1025.42 1025.57 1025.74 1025.90 1026.06 1026.18 1026.25 1026.29 1026.30 1026.28 1026.27 1026.28 1026.33 1026.42 1026.57 1026.76 1027.00 1027.25 1027.52 1027.77
1022.71 1022.87 1023.04 1023.22 1023.42 1023.64 1023.87 1024.13 1024.41 1024.70 1024.98 1025.25 1025.49 1025.68 1025.82 1025.90 1025.94 1025.94 1025.93 1025.91 1025.92 1025.95 1026.03 1026.14 1026.27 1026.42 1026.55 1026.67 1026.74 1026.77 1026.75 1026.70 1026.64 1026.57 1026.54 1026.54 1026.60 1026.72 1026.90 1027.12 1027.37 1027.63 1027.90
1023.57 1023.74 1023.92 1024.12 1024.34 1024.58 1024.83 1025.10 1025.37 1025.65 1025.91 1026.15 1026.35 1026.50 1026.61 1026.67 1026.70 1026.69 1026.68 1026.68 1026.71 1026.77 1026.86 1026.98 1027.11 1027.25 1027.37 1027.45 1027.47 1027.45 1027.38 1027.27 1027.14 1027.01 1026.92 1026.87 1026.88 1026.95 1027.09 1027.28 1027.51 1027.77 1028.03
1024.34 1024.50 1024.69 1024.90 1025.12 1025.36 1025.62 1025.89 1026.17 1026.44 1026.69 1026.92 1027.10 1027.25 1027.34 1027.41 1027.44 1027.45 1027.47 1027.50 1027.56 1027.65 1027.77 1027.91 1028.06 1028.20 1028.30 1028.35 1028.34 1028.27 1028.14 1027.96 1027.77 1027.57 1027.41 1027.29 1027.23 1027.25 1027.34 1027.49 1027.69 1027.92 1028.18
1024.99 1025.16 1025.34 1025.55 1025.77 1026.02 1026.28 1026.56 1026.84 1027.11 1027.36 1027.58 1027.77 1027.92 1028.03 1028.10 1028.16 1028.20 1028.25 1028.32 1028.42 1028.55 1028.70 1028.87 1029.03 1029.17 1029.27 1029.30 1029.26 1029.14 1028.96 1028.73 1028.47 1028.20 1027.97 1027.78 1027.66 1027.61 1027.64 1027.74 1027.90 1028.11 1028.34
1025.52 1025.70 1025.89 1026.10 1026.33 1026.58 1026.85 1027.13 1027.42 1027.69 1027.95 1028.18 1028.38 1028.54 1028.66 1028.76 1028.84 1028.91 1028.99 1029.10 1029.23 1029.39 1029.57 1029.76 1029.94 1030.08 1030.17 1030.18 1030.12 1029.97 1029.75 1029.47 1029.16 1028.84 1028.54 1028.29 1028.11 1028.00 1027.97 1028.02 1028.14 1028.32 1028.53
1025.96 1026.16 1026.37 1026.59 1026.83 1027.09 1027.36 1027.65 1027.94 1028.22 1028.48 1028.72 1028.92 1029.09 1029.22 1029.33 1029.43 1029.52 1029.63 1029.75 1029.91 1030.09 1030.28 1030.48 1030.66 1030.81 1030.89 1030.90 1030.82 1030.66 1030.41 1030.11 1029.76 1029.40 1029.06 1028.77 1028.53 1028.37 1028.30 1028.31 1028.39 1028.53 1028.71
1026.33 1026.55 1026.78 1027.02 1027.28 1027.55 1027.82 1028.11 1028.40 1028.68 1028.94 1029.18 1029.38 1029.54 1029.68 1029.79 1029.89 1029.99 1030.10 1030.23 1030.39 1030.57 1030.76 1030.96 1031.13 1031.27 1031.35 1031.36 1031.27 1031.10 1030.86 1030.54 1030.18 1029.81 1029.45 1029.13 1028.87 1028.68 1028.57 1028.54 1028.59 1028.70 1028.86
1026.64 1026.89 1027.15 1027.41 1027.68 1027.95 1028.22 1028.51 1028.78 1029.05 1029.30 1029.52 1029.71 1029.86 1029.99 1030.09 1030.18 1030.27 1030.36 1030.48 1030.62 1030.78 1030.96 1031.14 1031.30 1031.43 1031.50 1031.50 1031.42 1031.26 1031.02 1030.72 1030.37 1030.01 1029.65 1029.32 1029.05 1028.84 1028.71 1028.66 1028.68 1028.77 1028.90
1026.90 1027.18 1027.46 1027.73 1028.00 1028.26 1028.53 1028.79 1029.04 1029.28 1029.51 1029.71 1029.87 1030.01 1030.12 1030.20 1030.27 1030.33 1030.41 1030.50 1030.61 1030.74 1030.89 1031.04 1031.18 1031.29 1031.35 1031.35 1031.28 1031.13 1030.91 1030.63 1030.31 1029.97 1029.63 1029.32 1029.05 1028.84 1028.70 1028.63 1028.62 1028.68 1028.80
1027.11 1027.41 1027.69 1027.96 1028.22 1028.46 1028.69 1028.92 1029.14 1029.35 1029.54 1029.71 1029.85 1029.96 1030.05 1030.11 1030.16 1030.20 1030.25 1030.31 1030.39 1030.49 1030.60 1030.72 1030.83 1030.92 1030.97 1030.97 1030.91 1030.78 1030.58 1030.34 1030.05 1029.74 1029.42 1029.12 1028.86 1028.65 1028.50 1028.41 1028.38 1028.42 1028.51
1027.25 1027.55 1027.82 1028.07 1028.29 1028.50 1028.70 1028.88 1029.06 1029.23 1029.38 1029.52 1029.64 1029.73 1029.80 1029.85 1029.89 1029.91 1029.94 1029.98 1030.03 1030.10 1030.17 1030.26 1030.34 1030.41 1030.45 1030.45 1030.39 1030.28 1030.11 1029.90 1029.64 1029.35 1029.06 1028.78 1028.52 1028.30 1028.12 1028.01 1027.96 1027.97 1028.03
Thickness
5457 5459 5461 5463 5463 5465 5466 5467 5467 5467 5467 5468 5468 5468 5469 5469 5469 5469 5468 5467 5465 5464 5463 5463 5462 5461 5460 5459 5458 5457 5456 5454 5448 5445 5444 5443 5442 5440 5440 5440 5441 5441 5441
5445 5447 5450 5452 5453 5454 5455 5456 5456 5456 5456 5457 5456 5457 5457 5458 5457 5457 5457 5456 5454 5453 5452 5451 5450 5449 5448 5447 5445 5444 5443 5442 5438 5433 5431 5430 5430 5429 5428 5428 5429 5429 5429
5434 5436 5438 5440 5441 5443 5444 5444 5444 5445 5445 5445 5445 5445 5446 5446 5446 5446 5445 5444 5443 5442 5441 5439 5438 5437 5436 5434 5433 5431 5430 5429 5427 5423 5419 5418 5417 5416 5416 5416 5416 5416 5417
5423 5425 5427 5428 5430 5431 5432 5432 5432 5433 5433 5433 5433 5433 5434 5434 5435 5434 5433 5432 5431 5430 5429 5427 5426 5425 5424 5422 5420 5419 5417 5415 5412 5409 5407 5405 5403 5403 5402 5402 5402 5402 5403
5412 5413 5415 5417 5418 5419 5420 5420 5420 5421 5421 5421 5420 5421 5421 5421 5422 5422 5420 5419 5418 5416 5415 5414 5413 5412 5411 5410 5408 5406 5405 5402 5399 5396 5394 5392 5390 5389 5388 5388 5387 5387 5389
5400 5402 5403 5405 5406 5406 5407 5407 5408 5408 5408 5408 5408 5408 5408 5409 5410 5409 5408 5406 5405 5404 5402 5401 5399 5398 5397 5396 5394 5394 5393 5390 5387 5384 5381 5380 5379 5377 5375 5375 5373 5373 5373
5388 5389 5391 5392 5393 5393 5394 5395 5395 5395 5395 5395 5395 5395 5395 5395 5396 5396 5395 5393 5391 5390 5389 5387 5385 5384 5383 5381 5379 5379 5378 5377 5376 5374 5370 5368 5366 5365 5363 5361 5359 5358 5359
5375 5376 5378 5379 5380 5381 5381 5381 5382 5382 5382 5382 5382 5382 5381 5381 5381 5381 5381 5379 5377 5376 5375 5373 5372 5370 5368 5367 5365 5363 5362 5361 5360 5359 5358 5355 5353 5351 5350 5348 5346 5345 5345
5363 5364 5366 5367 5368 5368 5368 5368 5369 5370 5370 5369 5369 5368 5368 5367 5367 5367 5367 5364 5363 5361 5360 5359 5357 5356 5355 5353 5351 5349 5347 5345 5344 5343 5343 5341 5340 5338 5336 5334 5332 5331 5330
5352 5353 5354 5355 5356 5356 5357 5356 5356 5357 5357 5356 5356 5355 5354 5353 5353 5353 5353 5351 5349 5347 5345 5344 5343 5341 5340 5339 5336 5334 5332 5330 5329 5328 5327 5326 5324 5323 5322 5320 5319 5317 5316
5340 5341 5341 5342 5343 5344 5344 5344 5343 5343 5343 5343 5342 5341 5340 5340 5339 5339 5338 5336 5335 5333 5331 5329 5328 5327 5326 5324 5322 5320 5318 5316 5314 5313 5311 5310 5309 5308 5307 5306 5305 5304 5303
5327 5328 5328 5329 5330 5330 5330 5330 5330 5330 5329 5328 5327 5326 5325 5324 5324 5324 5324 5323 5321 5319 5317 5315 5314 5313 5312 5310 5308 5306 5304 5302 5300 5298 5297 5295 5294 5293 5292 5292 5291 5290 5290
5314 5315 5315 5316 5316 5317 5317 5317 5316 5315 5315 5314 5313 5312 5311 5310 5309 5309 5309 5308 5307 5305 5303 5301 5300 5298 5297 5295 5294 5292 5289 5287 5285 5284 5283 5281 5280 5279 5278 5277 5277 5276 5276
5302 5302 5303 5303 5303 5302 5302 5303 5302 5301 5300 5299 5299 5298 5296 5295 5294 5294 5293 5292 5291 5290 5288 5287 5286 5283 5282 5280 5278 5276 5274 5272 5271 5270 5268 5267 5265 5264 5263 5263 5262 5262 5261
5289 5289 5289 5289 5289 5288 5288 5287 5288 5288 5287 5286 5284 5284 5283 5282 5282 5282 5281 5279 5277 5275 5274 5272 5269 5267 5266 5264 5262 5261 5259 5258 5256 5255 5254 5252 5251 5251 5250 5249 5248 5248 5248
5276 5276 5275 5275 5275 5275 5274 5273 5273 5274 5274 5273 5273 5272 5271 5270 5270 5270 5269 5268 5266 5264 5261 5258 5255 5253 5252 5250 5248 5247 5246 5244 5242 5241 5240 5238 5237 5236 5236 5235 5235 5234 5234
5263 5263 5263 5262 5262 5261 5261 5260 5259 5259 5259 5259 5259 5259 5259 5257 5256 5256 5256 5255 5253 5251 5247 5244 5242 5240 5238 5236 5235 5233 5232 5230 5228 5227 5226 5225 5224 5223 5222 5221 5221 5221 5220
5251 5251 5250 5248 5248 5247 5247 5246 5245 5245 5244 5243 5244 5245 5244 5243 5243 5242 5241 5240 5237 5235 5233 5231 5229 5227 5225 5223 5221 5219 5218 5216 5215 5213 5212 5211 5210 5209 5208 5207 5207 5207 5207
5240 5238 5237 5236 5235 5234 5234 5233 5232 5232 5231 5230 5230 5230 5230 5229 5228 5227 5225 5223 5221 5219 5218 5217 5215 5213 5211 5210 5208 5206 5204 5203 5201 5200 5198 5197 5196 5195 5194 5194 5193 5194 5194
5228 5228 5226 5225 5223 5223 5222 5221 5220 5219 5218 5217 5216 5215 5215 5214 5212 5211 5210 5209 5207 5205 5204 5203 5201 5200 5198 5196 5195 5193 5191 5189 5188 5186 5185 5184 5183 5182 5181 5180 5180 5180 5180
5217 5216 5216 5214 5212 5211 5210 5209 5208 5207 5206 5205 5203 5202 5203 5200 5198 5197 5196 5195 5193 5192 5191 5189 5188 5186 5185 5183 5182 5180 5179 5177 5175 5174 5172 5171 5170 5169 5168 5167 5167 5167 5167
5206 5204 5203 5202 5200 5199 5199 5198 5196 5195 5193 5192 5190 5189 5189 5187 5184 5183 5181 5180 5179 5178 5177 5176 5174 5173 5171 5170 5168 5167 5165 5164 5162 5161 5159 5158 5157 5156 5155 5154 5154 5154 5154
5195 5193 5192 5190 5189 5189 5187 5185 5184 5182 5181 5179 5177 5176 5174 5173 5171 5169 5168 5167 5166 5165 5164 5163 5162 5160 5159 5157 5155 5154 5153 5152 5151 5149 5147 5146 5145 5144 5143 5143 5143 5142 5143
5185 5183 5181 5179 5178 5176 5175 5174 5172 5170 5168 5166 5165 5163 5161 5160 5158 5157 5155 5154 5153 5153 5152 5151 5149 5148 5147 5145 5144 5142 5141 5141 5139 5138 5137 5135 5134 5133 5132 5131 5132 5132 5132
5175 5173 5171 5169 5167 5166 5164 5163 5161 5159 5157 5155 5153 5151 5150 5148 5146 5145 5144 5143 5142 5141 5140 5139 5138 5137 5135 5134 5133 5132 5131 5130 5129 5128 5127 5126 5125 5123 5122 5121 5121 5121 5121
5166 5163 5161 5159 5157 5155 5153 5152 5149 5147 5145 5143 5142 5140 5138 5137 5135 5134 5133 5131 5130 5129 5128 5127 5127 5126 5125 5124 5123 5122 5122 5121 5121 5120 5119 5118 5117 5115 5114 5113 5113 5113 5113